Regional Weather Roundup
Issued by NWS

Home | Current Version | Previous Version | Graphics & Text | Print | Product List | Glossary On
Versions: 1 2 3 4 5 6 7 8 9 10 11 12 13 14 15 16 17 18 19 20 21 22 23 24 25 26 27 28 29 30 31 32 33 34 35 36 37 38 39 40 41 42 43 44 45 46 47 48 49 50
000
ASUS45 KPSR 190710
RWRAZ

ARIZONA HOURLY REGIONAL WEATHER ROUNDUP
NATIONAL WEATHER SERVICE PHOENIX AZ
1200 AM MST MON FEB 19 2018

NOTE: FAIR INDICATES FEW OR NO CLOUDS BELOW 12,000 FEET WITH NO
SIGNIFICANT WEATHER AND/OR OBSTRUCTIONS TO VISIBILITY.

AZZ001>003-036-190800-
NORTHWEST ARIZONA

CITY           SKY/WX    TMP DP  RH WIND       PRES   REMARKS
BULLHEAD CITY  CLEAR     64  32  29 S16G23    29.61S
KINGMAN        CLEAR     52  30  43 S21G31    29.66F
$$

AZZ004>008-015-016-018-190800-
NORTH CENTRAL ARIZONA

CITY           SKY/WX    TMP DP  RH WIND       PRES   REMARKS
GRAND CANYON   CLOUDY    39  30  70 SW15G30   29.71R WCI  31
WILLIAMS       CLOUDY    39  30  70 SW26G35   29.70R WCI  28
PRESCOTT       CLOUDY    47  34  60 S17G24    29.76F
FLAGSTAFF      CLOUDY    36  30  79 SW28G41   29.70F WCI  23
PAYSON         MOCLDY    46  36  66 SW16G25   29.81S
PAGE           PTCLDY    53  25  33 S16G25    29.52F
$$

AZZ009>014-017-190800-
NORTHEAST ARIZONA

CITY           SKY/WX    TMP DP  RH WIND       PRES   REMARKS
WINSLOW        PTCLDY    48  34  58 S16       29.72F
SAINT JOHNS    CLEAR     46  34  62 SW24G44   29.75F
WINDOW ROCK    CLOUDY    42  33  70 SW20G29   29.75S
SHOW LOW       MOCLDY    41  36  81 S26G33    29.81F
$$

AZZ540-542>544-546-548-190800-
GREATER PHOENIX AREA

CITY           SKY/WX    TMP DP  RH WIND       PRES   REMARKS
PHOENIX        MOCLDY    64  47  53 SE3       29.75S
BUCKEYE        CLOUDY    63  46  55 SW13      29.77S
LUKE AFB       PTCLDY    60  45  58 SW7       29.74F
DEER VALLEY    PTCLDY    62  44  51 SW12      29.76S
SCOTTSDALE     PTCLDY    61  43  51 CALM      29.78S
MESA-GATEWAY   MOCLDY    63  46  55 S12       29.79S
$$

AZZ539-553-190800-
SOUTHWEST MARICOPA COUNTY AND PINAL COUNTY

CITY           SKY/WX    TMP DP  RH WIND       PRES   REMARKS
CASA GRANDE      N/A     60  49  66 S13       29.79F
GILA BEND      FAIR      66  49  54 S17G26    29.75S
$$

AZZ503-504-507>509-190800-
SOUTHEAST ARIZONA

CITY           SKY/WX    TMP DP  RH WIND       PRES   REMARKS
TUCSON         PTCLDY    60  48  64 S15       29.85F
DAVIS-MONTHAN  PTCLDY    57  49  74 SE6       29.84F
NOGALES        LGT RAIN  52  52 100 S6        29.90F
SIERRA VISTA   LGT RAIN  51  47  85 CALM      29.92F
DOUGLAS        LGT RAIN  52  49  89 S6        29.91F
SAFFORD        MOCLDY    51  49  92 NE8       29.81F
$$

AZZ532-190800-
SOUTHWEST ARIZONA

CITY           SKY/WX    TMP DP  RH WIND       PRES   REMARKS
YUMA           CLEAR     59  48  67 SE3       29.77F
$$

CAZ041-043-047-048-061-525>527-560>570-190800-
SOUTHERN CALIFORNIA

CITY           SKY/WX    TMP DP  RH WIND       PRES   REMARKS
DOWNTOWN L.A.  PTCLDY    55  47  74 CALM      29.86F
L.A. AIRPORT   MOCLDY    56  46  69 W18       29.87F
SAN DIEGO      MOCLDY    60  50  69 SW8       29.93F
BURBANK        PTCLDY    54  49  83 S5        29.85S
ONTARIO        CLOUDY    53  47  79 W10       29.86F
RIVERSIDE      CLOUDY    52  47  83 CALM      29.87S
PALM SPRINGS   CLEAR     61  34  36 E17G25    29.74F
EL CENTRO NAS  CLEAR     62  33  33 W26       29.78S
IMPERIAL       CLEAR     62  34  35 W15G24    29.75S
BLYTHE         CLEAR     62  33  33 SW21      29.73S
NEEDLES        CLEAR     65  34  31 SW15      29.63F
$$

NVZ020-UTZ003-190800-
SOUTHERN NEVADA-UTAH

CITY           SKY/WX    TMP DP  RH WIND       PRES   REMARKS
LAS VEGAS      CLEAR     57  26  30 SW10G23   29.54R
SALT LAKE CITY LGT SNOW  33  30  88 NW15      29.49R FOG     WCI  23
$$

NMZ009-TXZ055-190800-
NEW MEXICO-WEST TEXAS

CITY           SKY/WX    TMP DP  RH WIND       PRES   REMARKS
ALBUQUERQUE    MOCLDY    49  35  58 S13       29.78F
EL PASO        MOCLDY    59  39  47 SW24G31   29.85F
$$


........................KEY........................
SKY/WX - SKY CONDITION/WEATHER
TMP    - TEMPERATURE IN FAHRENHEIT
DP     - DEW POINT IN FAHRENHEIT
RH     - RELATIVE HUMIDITY IN PERCENT
WIND   - DIRECTION AND SPEED IN MILES PER HOUR (MPH)
VRB    - VARIABLE WIND DIRECTION
PRES   - MEAN SEA LEVEL PRESSURE IN INCHES OF MERCURY
         F - FALLING PRESSURE   R - RISING PRESSURE
         S - STEADY PRESSURE
VSB    - VISIBILITY IN MILES
HX     - HEAT INDEX IN FAHRENHEIT
WCI    - WIND CHILL INDEX IN FAHRENHEIT
TC     - TEMPERATURE IN CELSIUS WHICH IS ALSO KNOWN AS
         TEMPERATURE IN CENTIGRADE
AFB    - AIR FORCE BASE
         LUKE AFB IS LUKE AIR FORCE BASE
         DAVIS-MONTHAN IS DAVIS-MONTHAN AIR FORCE BASE
NAS    - NAVAL AIR STATION
         EL CENTRO NAS IS EL CENTRO NAVAL AIR STATION
N/A    - NOT AVAILABLE




USA.gov is the U.S. government's official web portal to all federal, state and local government web resources and services.